When you browse on this site, cookies collect data to enhance your experience and personalize the content and advertising you see.
Visit our Privacy Policy to learn more. By continuing to use the site, you agree to this use of cookies and data.
  • In France
  • List of Countries
  • For 7 days
  • Water Temperature
  • Satellite Maps
  • Weather Map
  • Weather Widgets
  • user-avatar
    Login

    Hourly Weather Djelfa

    Today, 22 January, Tuesday

    Time Temperature Precipitation Wind Pressure Humidity
    00:00 0°C° 0 mm 5 mps 661 mmHg 90%
    01:00 0°C° 0 mm 5 mps 661 mmHg 90%
    02:00 0°C° 0 mm 5 mps 661 mmHg 90%
    03:00 -1°C° 0 mm 6 mps 661 mmHg 90%
    04:00 -1°C° 0 mm 6 mps 661 mmHg 90%
    05:00 -2°C° 0 mm 6 mps 661 mmHg 91%
    06:00 -2°C° 0 mm 6 mps 661 mmHg 92%
    07:00 -2°C° 0 mm 7 mps 661 mmHg 88%
    08:00 -1°C° 0 mm 8 mps 661 mmHg 85%
    09:00 -1°C° 0 mm 8 mps 661 mmHg 81%
    10:00 0°C° 0 mm 9 mps 661 mmHg 72%
    11:00 +1°C° 0 mm 10 mps 661 mmHg 64%
    12:00 +2°C° 0 mm 10 mps 661 mmHg 55%
    13:00 +2°C° 0 mm 11 mps 660 mmHg 52%
    14:00 +2°C° 0 mm 11 mps 660 mmHg 49%
    15:00 +2°C° 0 mm 11 mps 659 mmHg 46%
    16:00 +1°C° 0 mm 10 mps 659 mmHg 51%
    17:00 0°C° 0 mm 8 mps 659 mmHg 56%
    18:00 -1°C° 0 mm 7 mps 659 mmHg 61%
    19:00 -1°C° 0 mm 7 mps 659 mmHg 69%
    20:00 -1°C° 0 mm 7 mps 659 mmHg 76%
    21:00 -1°C° 0 mm 7 mps 659 mmHg 83%
    22:00 -1°C° 0.1 mm 8 mps 659 mmHg 83%
    23:00 -1°C° 0.1 mm 8 mps 658 mmHg 84%

    Tomorrow, 23 January, Wednesday

    Time Temperature Precipitation Wind Pressure Humidity
    00:00 -1°C° 0.1 mm 9 mps 658 mmHg 84%
    01:00 -1°C° 0.1 mm 9 mps 657 mmHg 86%
    02:00 -1°C° 0.1 mm 9 mps 657 mmHg 88%
    03:00 -1°C° 0.1 mm 8 mps 656 mmHg 90%
    04:00 -1°C° 0 mm 9 mps 656 mmHg 89%
    05:00 -2°C° 0 mm 10 mps 656 mmHg 89%
    06:00 -2°C° 0 mm 10 mps 656 mmHg 88%
    07:00 -2°C° 0.1 mm 11 mps 656 mmHg 86%
    08:00 -1°C° 0.1 mm 12 mps 656 mmHg 83%
    09:00 -1°C° 0.1 mm 13 mps 657 mmHg 80%
    10:00 0°C° 0 mm 13 mps 657 mmHg 73%
    11:00 +1°C° 0 mm 14 mps 657 mmHg 66%
    12:00 +1°C° 0 mm 14 mps 656 mmHg 59%
    13:00 +3°C° 0 mm 14 mps 656 mmHg 57%
    14:00 +4°C° 0 mm 14 mps 656 mmHg 54%
    15:00 +4°C° 0 mm 15 mps 655 mmHg 51%
    16:00 +4°C° 0.1 mm 15 mps 655 mmHg 58%
    17:00 +2°C° 0.1 mm 15 mps 655 mmHg 66%
    18:00 +1°C° 0.1 mm 16 mps 655 mmHg 73%
    19:00 +1°C° 0 mm 16 mps 655 mmHg 76%
    20:00 +1°C° 0 mm 16 mps 655 mmHg 79%
    21:00 0°C° 0 mm 17 mps 655 mmHg 82%
    22:00 +1°C° 0 mm 17 mps 655 mmHg 82%
    23:00 +1°C° 0 mm 17 mps 654 mmHg 82%

    Day after tomorrow, 24 January, Thursday

    Time Temperature Precipitation Wind Pressure Humidity
    00:00 +1°C° 0 mm 17 mps 654 mmHg 82%
    01:00 +1°C° 0.2 mm 17 mps 653 mmHg 83%
    02:00 +1°C° 0.2 mm 17 mps 653 mmHg 83%
    03:00 +1°C° 0.2 mm 17 mps 652 mmHg 84%
    04:00 +1°C° 0.2 mm 18 mps 652 mmHg 83%
    05:00 +1°C° 0.2 mm 18 mps 651 mmHg 81%
    06:00 +1°C° 0.2 mm 19 mps 651 mmHg 80%
    07:00 -1°C° 0.3 mm 19 mps 651 mmHg 81%
    08:00 -1°C° 0.3 mm 19 mps 652 mmHg 82%
    09:00 -1°C° 0.3 mm 18 mps 652 mmHg 83%
    10:00 -1°C° 0.4 mm 19 mps 652 mmHg 73%
    11:00 -1°C° 0.4 mm 20 mps 653 mmHg 64%
    12:00 -1°C° 0.4 mm 20 mps 653 mmHg 54%
    13:00 -1°C° 0 mm 19 mps 654 mmHg 49%
    14:00 -2°C° 0 mm 19 mps 654 mmHg 45%
    15:00 -2°C° 0 mm 18 mps 654 mmHg 40%
    16:00 -3°C° 0 mm 16 mps 654 mmHg 46%
    17:00 -4°C° 0 mm 14 mps 655 mmHg 51%
    18:00 -5°C° 0 mm 12 mps 655 mmHg 56%
    19:00 -4°C° 0 mm 11 mps 655 mmHg 61%
    20:00 -4°C° 0 mm 11 mps 656 mmHg 66%
    21:00 -5°C° 0 mm 10 mps 656 mmHg 71%
    22:00 -5°C° 0 mm 10 mps 657 mmHg 71%
    23:00 -5°C° 0 mm 10 mps 657 mmHg 72%

    25 January, Friday

    Time Temperature Precipitation Wind Pressure Humidity
    00:00 -5°C° 0 mm 10 mps 657 mmHg 72%
    01:00 -5°C° 0 mm 10 mps 657 mmHg 72%
    02:00 -5°C° 0 mm 10 mps 657 mmHg 72%
    03:00 -6°C° 0 mm 9 mps 657 mmHg 72%
    04:00 -6°C° 0 mm 9 mps 657 mmHg 73%
    05:00 -6°C° 0 mm 9 mps 658 mmHg 75%
    06:00 -6°C° 0 mm 8 mps 658 mmHg 76%
    07:00 -5°C° 0 mm 9 mps 659 mmHg 72%
    08:00 -4°C° 0 mm 9 mps 660 mmHg 68%
    09:00 -3°C° 0 mm 10 mps 660 mmHg 63%
    10:00 -2°C° 0 mm 10 mps 661 mmHg 59%
    11:00 -1°C° 0 mm 9 mps 661 mmHg 55%
    12:00 0°C° 0 mm 9 mps 661 mmHg 51%
    13:00 +1°C° 0 mm 9 mps 661 mmHg 50%
    14:00 +1°C° 0 mm 9 mps 661 mmHg 49%
    15:00 +1°C° 0 mm 9 mps 661 mmHg 48%
    16:00 0°C° 0 mm 8 mps 661 mmHg 54%
    17:00 -1°C° 0 mm 7 mps 661 mmHg 59%
    18:00 -2°C° 0 mm 6 mps 661 mmHg 65%
    19:00 -2°C° 0 mm 6 mps 661 mmHg 67%
    20:00 -3°C° 0 mm 6 mps 662 mmHg 70%
    21:00 -3°C° 0 mm 6 mps 662 mmHg 72%
    22:00 -3°C° 0 mm 7 mps 662 mmHg 68%
    23:00 -3°C° 0 mm 7 mps 662 mmHg 63%

    26 January, Saturday

    Time Temperature Precipitation Wind Pressure Humidity
    00:00 -3°C° 0 mm 7 mps 662 mmHg 58%
    01:00 -3°C° 0 mm 7 mps 662 mmHg 56%
    02:00 -3°C° 0 mm 7 mps 662 mmHg 54%
    03:00 -3°C° 0 mm 7 mps 662 mmHg 51%
    04:00 -3°C° 0 mm 6 mps 662 mmHg 52%
    05:00 -2°C° 0 mm 5 mps 662 mmHg 53%
    06:00 -2°C° 0 mm 4 mps 662 mmHg 54%
    07:00 -1°C° 0 mm 5 mps 663 mmHg 52%
    08:00 +1°C° 0 mm 5 mps 663 mmHg 50%
    09:00 +2°C° 0 mm 5 mps 664 mmHg 48%
    10:00 +5°C° 0 mm 5 mps 664 mmHg 49%
    11:00 +5°C° 0 mm 6 mps 664 mmHg 49%
    12:00 +7°C° 0 mm 6 mps 664 mmHg 49%
    13:00 +8°C° 0 mm 7 mps 663 mmHg 50%
    14:00 +8°C° 0 mm 7 mps 662 mmHg 50%
    15:00 +7°C° 0 mm 8 mps 662 mmHg 51%
    16:00 +6°C° 0 mm 7 mps 661 mmHg 55%
    17:00 +5°C° 0 mm 6 mps 661 mmHg 60%
    18:00 +5°C° 0 mm 5 mps 661 mmHg 65%
    19:00 +5°C° 0 mm 5 mps 661 mmHg 65%
    20:00 +3°C° 0 mm 5 mps 661 mmHg 66%
    21:00 +3°C° 0 mm 5 mps 661 mmHg 67%
    22:00 +3°C° 0 mm 5 mps 660 mmHg 67%
    23:00 +3°C° 0 mm 6 mps 660 mmHg 66%

    27 January, Sunday

    Time Temperature Precipitation Wind Pressure Humidity
    00:00 +2°C° 0 mm 6 mps 660 mmHg 66%
    01:00 +2°C° 0 mm 7 mps 659 mmHg 67%
    02:00 +1°C° 0 mm 8 mps 659 mmHg 68%
    03:00 +1°C° 0 mm 9 mps 658 mmHg 69%
    04:00 +1°C° 0 mm 9 mps 658 mmHg 76%
    05:00 +1°C° 0 mm 9 mps 658 mmHg 83%
    06:00 +1°C° 0 mm 9 mps 658 mmHg 89%
    07:00 +1°C° 0 mm 9 mps 658 mmHg 87%
    08:00 +2°C° 0 mm 9 mps 659 mmHg 85%
    09:00 +2°C° 0 mm 9 mps 659 mmHg 83%
    10:00 +2°C° 0.1 mm 9 mps 659 mmHg 79%
    11:00 +2°C° 0.1 mm 9 mps 658 mmHg 75%
    12:00 +2°C° 0.1 mm 10 mps 658 mmHg 71%
    13:00 +2°C° 0 mm 10 mps 658 mmHg 66%
    14:00 +2°C° 0 mm 10 mps 658 mmHg 62%
    15:00 +2°C° 0 mm 11 mps 658 mmHg 57%
    16:00 +1°C° 0 mm 10 mps 658 mmHg 61%
    17:00 0°C° 0 mm 9 mps 658 mmHg 65%
    18:00 -1°C° 0 mm 8 mps 658 mmHg 69%
    19:00 -2°C° 0 mm 8 mps 659 mmHg 72%
    20:00 -2°C° 0 mm 8 mps 659 mmHg 76%
    21:00 -4°C° 0 mm 8 mps 659 mmHg 79%
    22:00 -4°C° 0 mm 8 mps 659 mmHg 80%
    23:00 -4°C° 0 mm 8 mps 659 mmHg 81%
    Show more